weather.gov     
National Weather Service

Terminal Aerodrome Forecast
NWS Homepage
This page is being discontinued on March 12, 2014.
The same data is available at this site. Please update your bookmarks.
Thank you, and we apologize for the inconvenience.
Please send an email to SR-SRH.Webmaster@noaa.gov with any concerns.


Current Version
Previous Version:    01  02  03  04  05  06  07  08  09  10  11  12  13  14  15  16  17  18  19  20  21  22  23  
[Printable]
282
FTUS44 KOUN 201727
TAFGAG
TAF
KGAG 201727Z 2018/2118 06004KT P6SM SCT200
     FM210000 05005KT P6SM BKN030
     FM210400 03005KT 5SM BR OVC020
      TEMPO 2108/2112 3SM BR OVC005
     FM211700 33005KT 5SM BR OVC010=




282
FTUS44 KOUN 201727
TAFGAG
TAF
KGAG 201727Z 2018/2118 06004KT P6SM SCT200
     FM210000 05005KT P6SM BKN030
     FM210400 03005KT 5SM BR OVC020
      TEMPO 2108/2112 3SM BR OVC005
     FM211700 33005KT 5SM BR OVC010=


U.S. Dept. of Commerce
NOAA National Weather Service
1325 East West Highway
Silver Spring, MD 20910
E-mail: w-nws.webmaster@noaa.gov
Page last modified: May 16, 2007
NATIONAL WEATHER SERVICE: for Safety, for Work, for Fun - FOR LIFE